Regional Weather Roundup
Issued by NWS

Home | Current Version | Previous Version | Graphics & Text | Print | Product List | Glossary On
Versions: 1 2 3 4 5 6 7 8 9 10 11 12 13 14 15 16 17 18 19 20 21 22 23 24 25 26 27 28 29 30 31 32 33 34 35 36 37 38 39 40 41 42 43 44 45 46 47 48 49 50
000
ASUS45 KSLC 251510
RWRUT

UTAH REGIONAL WEATHER ROUNDUP
NATIONAL WEATHER SERVICE SALT LAKE CITY UT
900 AM MDT MON MAY 25 2015

UTZ001>011-023>025-251600-

NORTHERN UTAH

CITY           SKY/WX    TMP DP  RH WIND       PRES   REMARKS
BRIGHAM CITY   CLOUDY    56  49  75 CALM      29.97R
HILL AFB       MOSUNNY   54  46  76 E6        29.97S
LOGAN          MOSUNNY   56  48  74 CALM      29.96R
OGDEN          MOSUNNY   54  47  77 S8        29.96R
PROVO AIRPORT  NOT AVBL
SALT LAKE CITY PTSUNNY   55  49  80 SE7       29.97R
VERNAL         CLOUDY    49  43  80 CALM      30.01R
WENDOVER       MOSUNNY   59  48  67 E8        29.97R
HEBER CITY     CLOUDY    46  43  87 CALM      30.01S
WEST JORDAN    CLOUDY    54  50  87 S9        29.98R

$$

UTZ012>022-026-027-251600-

SOUTHERN/CENTRAL UTAH

CITY           SKY/WX    TMP DP  RH WIND       PRES   REMARKS
BLANDING       CLOUDY    50  45  84 E5        30.08R
BRYCE CANYON   SUNNY     50  37  61 NW13      30.07S
CEDAR CITY     SUNNY     53  44  71 SW3       30.02R
DELTA          CLOUDY    54  46  74 S8        30.00R
HANKSVILLE     CLOUDY    57  45  62 N3        29.98R
MILFORD        SUNNY     55  46  71 SW13      30.00R
MOAB/CYNLANDS  SUNNY     57  45  64 SE7       29.96R
PRICE          PTSUNNY   55  39  54 E5        29.99R
ST GEORGE      PTSUNNY   63  48  59 CALM      30.00R
KANAB          MOSUNNY   54  48  82 CALM      30.07R

$$

REGIONAL REPORTS     COLORADO/ARIZONA

CITY           SKY/WX    TMP DP  RH WIND       PRES   REMARKS
CRAIG, CO      CLOUDY    48  40  73 W5        30.01S
GRAND JUNCTION CLOUDY    51  45  79 SE9       29.99R
RIFLE          CLOUDY    47  43  86 CALM      30.03R
MONTROSE       PTSUNNY   50  43  77 CALM      30.04R
CORTEZ         CLOUDY    52  44  74 E6        30.02R
PAGE, AZ       CLOUDY    60  48  64 CALM      29.98R
GRAND CANYON   LGT RAIN  45  43  93 CALM      30.09R
KINGMAN        PTSUNNY   65  47  52 CALM      29.98R
FLAGSTAFF      CLOUDY    49  44  83 VRB6      30.10R

$$

REGIONAL REPORTS    NEVADA/IDAHO/WYOMING

CITY           SKY/WX    TMP DP  RH WIND       PRES   REMARKS
LAS VEGAS, NV  MOSUNNY   66  53  63 SW3       29.92R
ELY            SUNNY     48  40  73 S9        30.06R
ELKO           CLOUDY    49  45  86 SW3       30.01R
POCATELLO, ID  PTSUNNY   53  47  79 W7        29.97R
BURLEY         MOSUNNY   56  48  74 CALM      29.94R
EVANSTON, WY   CLOUDY    45  43  93 SW7       30.03R
ROCK SPRINGS   CLOUDY    44  39  82 S6        30.02R
KEMMERER       CLOUDY    45  41  87 CALM      30.03R

$$



USA.gov is the U.S. government's official web portal to all federal, state and local government web resources and services.